Time,TemperatureF,DewpointF,PressureIn,WindDirection,WindDirectionDegrees,WindSpeedMPH,WindSpeedGustMPH,Humidity,HourlyPrecipIn,Conditions,Clouds,dailyrainin,SoftwareType,DateUTC
2013-05-05 00:10:00,53.6,51.6,30.01,WNW,300,6.0,6.0,93,0.00,OVC,OVC,0.00,WeatherDisplay:10.37,2013-05-05 05:10:00,
2013-05-05 00:40:00,54.0,51.7,30.01,WNW,300,5.0,5.0,92,0.00,OVC,OVC,0.00,WeatherDisplay:10.37,2013-05-05 05:40:00,
2013-05-05 01:10:00,54.0,52.8,30.02,NNW,340,3.0,3.0,96,0.00,-RA,-RA,0.00,WeatherDisplay:10.37,2013-05-05 06:10:00,
2013-05-05 01:40:00,54.0,51.7,30.02,NNW,340,0.0,0.0,92,0.00,OVC,OVC,0.00,WeatherDisplay:10.37,2013-05-05 06:40:00,
2013-05-05 02:10:00,54.0,51.7,30.02,NNW,340,0.0,0.0,92,0.00,OVC,OVC,0.00,WeatherDisplay:10.37,2013-05-05 07:10:00,
2013-05-05 02:40:00,54.0,51.7,30.01,North,350,3.0,3.0,92,0.00,OVC,OVC,0.00,WeatherDisplay:10.37,2013-05-05 07:40:00,
2013-05-05 03:10:00,53.1,52.0,30.00,NNW,340,3.0,3.0,96,0.00,OVC,OVC,0.00,WeatherDisplay:10.37,2013-05-05 08:10:00,
2013-05-05 03:40:00,54.0,51.7,30.01,NNW,340,0.0,0.0,92,0.00,OVC,OVC,0.00,WeatherDisplay:10.37,2013-05-05 08:40:00,
2013-05-05 04:10:00,53.1,52.0,30.00,North,360,3.0,3.0,96,0.00,OVC,OVC,0.00,WeatherDisplay:10.37,2013-05-05 09:10:00,
2013-05-05 04:40:00,53.1,52.0,30.00,North,360,0.0,0.0,96,0.00,OVC,OVC,0.00,WeatherDisplay:10.37,2013-05-05 09:40:00,
2013-05-05 05:10:00,53.1,52.0,30.00,North,360,0.0,0.0,96,0.00,OVC,OVC,0.00,WeatherDisplay:10.37,2013-05-05 10:10:00,
2013-05-05 05:40:00,54.0,51.7,30.00,North,10,5.0,5.0,92,0.00,OVC,OVC,0.00,WeatherDisplay:10.37,2013-05-05 10:40:00,
2013-05-05 06:10:00,54.0,51.7,30.00,North,10,5.0,5.0,92,0.00,OVC,OVC,0.00,WeatherDisplay:10.37,2013-05-05 11:10:00,
2013-05-05 06:40:00,53.1,52.0,30.00,NW,320,3.0,3.0,96,0.00,OVC,OVC,0.00,WeatherDisplay:10.37,2013-05-05 11:40:00,
2013-05-05 07:10:00,53.1,52.0,30.00,NNW,340,5.0,6.0,96,0.00,-RA,-RA,0.00,WeatherDisplay:10.37,2013-05-05 12:10:00,
2013-05-05 07:40:00,53.1,52.0,30.00,NW,320,6.0,6.0,96,0.00,OVC,OVC,0.00,WeatherDisplay:10.37,2013-05-05 12:40:00,
2013-05-05 08:10:00,53.1,52.0,30.00,NW,320,6.0,6.0,96,0.00,OVC,OVC,0.00,WeatherDisplay:10.37,2013-05-05 13:10:00,
2013-05-05 08:40:00,54.0,52.8,29.99,North,350,7.0,7.0,96,0.00,OVC,OVC,0.00,WeatherDisplay:10.37,2013-05-05 13:40:00,
2013-05-05 09:10:00,54.0,52.8,29.99,North,350,7.0,7.0,96,0.00,OVC,OVC,0.00,WeatherDisplay:10.37,2013-05-05 14:10:00,
2013-05-05 09:40:00,55.9,53.0,29.98,North,360,8.0,8.0,90,0.00,OVC,OVC,0.00,WeatherDisplay:10.37,2013-05-05 14:40:00,
2013-05-05 10:10:00,55.9,53.0,29.98,North,360,8.0,8.0,90,0.00,OVC,OVC,0.00,WeatherDisplay:10.37,2013-05-05 15:10:00,
2013-05-05 10:40:00,60.1,53.9,29.99,NNE,20,7.0,7.0,80,0.00,BKN,BKN,0.00,WeatherDisplay:10.37,2013-05-05 15:40:00,
2013-05-05 11:10:00,60.1,53.9,29.99,NNE,20,7.0,7.0,80,0.00,BKN,BKN,0.00,WeatherDisplay:10.37,2013-05-05 16:10:00,
2013-05-05 11:40:00,63.0,53.0,29.99,NE,40,7.0,7.0,70,0.00,FEW,FEW,0.00,WeatherDisplay:10.37,2013-05-05 16:40:00,
2013-05-05 12:10:00,63.0,53.0,29.99,NE,40,7.0,7.0,70,0.00,FEW,FEW,0.00,WeatherDisplay:10.37,2013-05-05 17:10:00,
2013-05-05 12:40:00,68.0,53.6,29.97,NE,40,7.0,7.0,60,0.00,CLR,CLR,0.00,WeatherDisplay:10.37,2013-05-05 17:40:00,
2013-05-05 13:10:00,68.0,53.6,29.97,NE,40,7.0,7.0,60,0.00,CLR,CLR,0.00,WeatherDisplay:10.37,2013-05-05 18:10:00,
2013-05-05 13:40:00,70.0,51.5,29.94,NE,50,14.0,23.0,52,0.00,CLR,CLR,0.00,WeatherDisplay:10.37,2013-05-05 18:40:00,
2013-05-05 14:10:00,70.0,51.5,29.94,NE,50,14.0,23.0,52,0.00,CLR,CLR,0.00,WeatherDisplay:10.37,2013-05-05 19:10:00,
2013-05-05 14:40:00,71.1,51.5,29.93,NE,50,13.0,23.0,50,0.00,CLR,CLR,0.00,WeatherDisplay:10.37,2013-05-05 19:40:00,
2013-05-05 15:10:00,71.1,51.5,29.93,NE,50,13.0,23.0,50,0.00,CLR,CLR,0.00,WeatherDisplay:10.37,2013-05-05 20:10:00,
2013-05-05 15:40:00,72.0,47.6,29.92,ENE,70,14.0,25.0,42,0.00,FEW,FEW,0.00,WeatherDisplay:10.37,2013-05-05 20:40:00,
2013-05-05 16:10:00,72.0,47.6,29.92,ENE,70,14.0,25.0,42,0.00,FEW,FEW,0.00,WeatherDisplay:10.37,2013-05-05 21:10:00,
2013-05-05 16:40:00,71.1,45.5,29.91,ENE,70,7.0,7.0,40,0.00,OVC,OVC,0.00,WeatherDisplay:10.37,2013-05-05 21:40:00,
2013-05-05 17:10:00,71.1,45.5,29.91,ENE,70,7.0,7.0,40,0.00,OVC,OVC,0.00,WeatherDisplay:10.37,2013-05-05 22:10:00,
2013-05-05 17:40:00,70.0,45.8,29.92,ESE,120,10.0,10.0,42,0.00,OVC,OVC,0.00,WeatherDisplay:10.37,2013-05-05 22:40:00,
2013-05-05 18:10:00,70.0,45.8,29.92,ESE,120,10.0,10.0,42,0.00,OVC,OVC,0.00,WeatherDisplay:10.37,2013-05-05 23:10:00,
2013-05-05 18:40:00,68.0,47.6,29.93,ESE,110,10.0,10.0,48,0.00,OVC,OVC,0.00,WeatherDisplay:10.37,2013-05-05 23:40:00,
2013-05-05 19:10:00,68.0,47.6,29.93,ESE,110,10.0,10.0,48,0.00,OVC,OVC,0.00,WeatherDisplay:10.37,2013-05-06 00:10:00,
2013-05-05 19:40:00,64.0,48.5,29.96,East,100,10.0,10.0,57,0.00,-RA,-RA,0.00,WeatherDisplay:10.37,2013-05-06 00:40:00,
2013-05-05 20:10:00,64.0,48.5,29.96,East,100,10.0,10.0,57,0.00,-RA,-RA,0.00,WeatherDisplay:10.37,2013-05-06 01:10:00,
2013-05-05 20:40:00,63.0,49.7,29.97,East,100,6.0,6.0,62,0.00,OVC,OVC,0.00,WeatherDisplay:10.37,2013-05-06 01:40:00,
2013-05-05 21:10:00,63.0,49.7,29.97,East,100,6.0,6.0,62,0.00,OVC,OVC,0.00,WeatherDisplay:10.37,2013-05-06 02:10:00,
2013-05-05 21:40:00,62.1,51.0,29.98,NE,50,8.0,8.0,67,0.00,OVC,OVC,0.00,WeatherDisplay:10.37,2013-05-06 02:40:00,
2013-05-05 22:10:00,62.1,51.0,29.98,NE,50,8.0,8.0,67,0.00,OVC,OVC,0.00,WeatherDisplay:10.37,2013-05-06 03:10:00,
2013-05-05 22:40:00,63.0,48.9,29.99,NE,50,9.0,9.0,60,0.00,OVC,OVC,0.00,WeatherDisplay:10.37,2013-05-06 03:40:00,
2013-05-05 23:10:00,63.0,48.9,29.99,NE,50,9.0,9.0,60,0.00,OVC,OVC,0.00,WeatherDisplay:10.37,2013-05-06 04:10:00,
2013-05-05 23:40:00,61.0,49.9,30.01,East,100,12.0,12.0,67,0.00,OVC,OVC,0.00,WeatherDisplay:10.37,2013-05-06 04:40:00,